Terminal Aerodrome Forecast
Issued by NWS Sterling, VA

Current Version | Previous Version | Graphics & Text | Print | Product List | Glossary On
Versions: 1 2 3 4 5 6 7 8 9 10 11 12 13 14 15 16 17 18 19 20 21 22 23 24 25 26 27
088
FTUS41 KLWX 162054 AAA
TAFDCA
TAF AMD
KDCA 162054Z 1621/1718 17005KT P6SM OVC030
     FM170500 17004KT P6SM OVC015
     FM171100 VRB03KT P6SM OVC008
     FM171200 VRB03KT 3SM -RA BR OVC008=

USA.gov is the U.S. government's official web portal to all federal, state and local government web resources and services.